CW7054 Weather Reports


time (UTC)temp
C
wind
direction
speed
KPH
gust
KPH
rain 1hr
cm
rain 24hr
cm
rain mn
cm
humidity
%
barometer
mb
20260505011508 11 165 0.0 4.8 0.00 0.00 0.00 89 1011.8
20260505010004 11 167 1.6 12.9 0.00 0.00 0.00 89 1011.6
20260505004503 11 167 1.6 12.9 0.00 0.00 0.00 88 1011.4
20260505003003 11 189 1.6 11.3 0.00 0.00 0.00 88 1011.2
20260505001501 11 196 1.6 12.9 0.00 0.00 0.00 87 1010.9
20260505000002 11 175 3.2 9.7 0.00 0.00 0.00 87 1010.8
20260504234614 11 171 3.2 12.9 0.00 0.00 0.00 86 1010.7
20260504233108 11 193 0.0 8.0 0.00 0.00 0.00 85 1010.6
20260504231559 12 169 1.6 12.9 0.00 0.00 0.00 83 1010.5
20260504230059 12 168 0.0 12.9 0.00 0.00 0.00 82 1010.6
20260504224610 12 175 3.2 12.9 0.00 0.00 0.00 81 1010.6
20260504223057 12 239 1.6 6.4 0.00 0.00 0.00 80 1010.7
20260504221557 13 175 1.6 9.7 0.00 0.00 0.00 79 1010.8
20260504220059 13 194 3.2 9.7 0.00 0.00 0.00 78 1010.9
20260504214600 13 227 1.6 8.0 0.00 0.00 0.00 78 1011.0
20260504213125 13 248 1.6 9.7 0.00 0.00 0.00 78 1010.9
20260504211603 13 234 3.2 11.3 0.00 0.00 0.00 77 1010.9
20260504210055 14 208 1.6 11.3 0.00 0.00 0.00 76 1010.9
20260504204556 14 215 1.6 9.7 0.00 0.00 0.00 76 1010.9
20260504203114 15 231 3.2 16.1 0.00 0.00 0.00 74 1010.7
20260504201552 15 186 3.2 12.9 0.00 0.00 0.00 74 1010.8
20260504200053 15 197 3.2 17.7 0.00 0.00 0.00 73 1011.0
20260504194602 15 167 4.8 17.7 0.00 0.00 0.00 72 1011.0
20260504193057 15 255 3.2 12.9 0.00 0.00 0.00 72 1011.1
20260504191547 15 258 1.6 12.9 0.00 0.00 0.00 72 1011.1
20260504190058 15 147 1.6 11.3 0.00 0.00 0.00 71 1011.2
20260504184548 15 180 4.8 16.1 0.00 0.00 0.00 71 1011.4
20260504183042 15 107 4.8 17.7 0.00 0.00 0.00 71 1011.5
20260504181543 15 161 3.2 9.7 0.00 0.00 0.00 71 1011.7
20260504180039 15 175 3.2 14.5 0.00 0.00 0.00 73 1011.8
20260504174537 15 182 3.2 17.7 0.00 0.00 0.00 73 1011.9
20260504173043 15 169 3.2 14.5 0.00 0.00 0.00 74 1012.0
20260504171532 15 165 4.8 16.1 0.00 0.00 0.00 77 1012.1
20260504081517 8 217 0.0 4.8 0.00 0.00 0.00 81 1012.5
20260504044603 6 279 0.0 1.6 0.00 0.00 0.00 82 1011.9
20260504043054 6 279 0.0 0.0 0.00 0.00 0.00 80 1011.8
20260504041550 6 279 0.0 0.0 0.00 0.00 0.00 78 1011.8
20260504040047 6 279 0.0 1.6 0.00 0.00 0.00 75 1011.7
20260504034553 6 279 0.0 0.0 0.00 0.00 0.00 72 1011.7
20260504033053 6 279 0.0 0.0 0.00 0.00 0.00 72 1011.6
20260504031544 6 279 0.0 0.0 0.00 0.00 0.00 73 1011.5
20260504030042 6 279 0.0 1.6 0.00 0.00 0.00 75 1011.6
20260504024545 6 279 0.0 1.6 0.00 0.00 0.00 75 1011.5
20260504023040 6 279 0.0 0.0 0.00 0.00 0.00 74 1011.5
20260504021541 6 279 0.0 0.0 0.00 0.00 0.00 73 1011.5
20260504020041 7 279 0.0 0.0 0.00 0.00 0.00 71 1011.5
20260504014539 7 279 0.0 0.0 0.00 0.00 0.00 70 1011.3
20260504013039 7 279 0.0 0.0 0.00 0.00 0.00 68 1011.2